STARLINK-36106

Last updated on Fri Dec 19 2025 00:02:09 GMT+0000 (Coordinated Universal Time)

1 67018U 25293R 25351.83335648 -.01054924 35585-3 -22813-2 0 9993 2 67018 69.9930 309.0052 0003737 268.9409 135.4803 15.98203813 2384
UTC large
Height (km)
Speed (km/s)
/
Latitude / Longitude
Inclination (degrees)
Orbital Period (minutes)
Azimuth
Elevation
Range (km)
Doppler Factor

Next 0 passes for location: London (51.5072 / 0.1276)

Sorry there are no passes over London.